AirNav   Air Wisconsin pilot careers
 
 1555 users online  

11A Clayton Municipal Airport
Clayton, Alabama, USA

GOING TO CLAYTON?


FAA INFORMATION EFFECTIVE 11 OCTOBER 2018

Location

FAA Identifier: 11A
Lat/Long: 31-53-00.0000N / 085-29-06.8000W
31-53.000000N / 085-29.113333W
31.8833333 / -85.4852222
(estimated)
Elevation: 434.9 ft. / 132.6 m (surveyed)
Variation: 04W (2015)
From city: 2 miles W of CLAYTON, AL
Time zone: UTC -5 (UTC -6 during Standard Time)
Zip code: 36016

Airport Operations

Airport use: Open to the public
Activation date: 02/1970
Control tower: no
ARTCC: JACKSONVILLE CENTER
FSS: ANNISTON FLIGHT SERVICE STATION
NOTAMs facility: ANB (NOTAM-D service available)
Attendance: UNATNDD
Wind indicator: lighted
Segmented circle: yes
Lights: ACTVT HIRL RY 9/27 AND PAPI RY 9 AND 27 - CTAF.
Beacon: white-green (lighted land airport)
Operates sunset to sunrise.

Airport Communications

CTAF: 122.9
WX AWOS-3: 118.775 (334-775-8414)
CAIRNS APPROACH: 121.1
CAIRNS DEPARTURE: 121.1
WX ASOS at EUF (19 nm E): 128.325 (334-687-5596)
  • APCH/DEP SVCS PRVDD BY ATLANTA ARTCC ON FREQS 120.55/270.25 (MONTGOMERY RCAG) WHEN CAIRNS APCH/DEP CLSD.

Nearby radio navigation aids

VOR radial/distance  VOR name  Freq  Var
EUFr255/18.5EUFAULA VORTAC109.2002E
HEYr019/(31.7)HANCHEY VOR110.6003W
RRSr354/36.0WIREGRASS VORTAC111.6002E
LSFr225/36.8LAWSON VOR/DME111.4002W
TGEr163/37.3TUSKEGEE VOR/DME117.3002E
OZRr021/38.9CAIRNS VOR/DME111.2003W

 
NDB name  Hdg/Dist  Freq  Var  ID
HANCHEY019/31.622103WHYE .... -.-- .
BLOOD088/31.836504WTOI - --- ..
LOWE026/34.026903WLOR .-.. --- .-.
LAWSON226/34.033502WAWS .- .-- ...

Airport Services

Parking: tiedowns
Bottled oxygen: NONE
Bulk oxygen: NONE

Runway Information

Runway 9/27

Dimensions: 5010 x 80 ft. / 1527 x 24 m
Surface: asphalt, in fair condition
Runway edge lights: high intensity
Runway edge markings: MARKINGS POOR DUE TO FADING
RUNWAY 9  RUNWAY 27
Latitude: 31-53.047310N31-52.951598N
Longitude: 085-29.594240W085-28.632727W
Elevation: 422.0 ft.434.3 ft.
Gradient: 0.3% UP0.3% DOWN
Traffic pattern: leftleft
Runway heading: 101 magnetic, 097 true281 magnetic, 277 true
Displaced threshold: 278 ft.no
Markings: nonprecision, in poor conditionnonprecision, in poor condition
Visual slope indicator: 2-light PAPI on left (3.20 degrees glide path)2-light PAPI on left (3.75 degrees glide path)
Runway end identifier lights: yesyes
Touchdown point: yes, no lightsyes, no lights
Obstructions: 28 ft. tree, 469 ft. from runway, 20 ft. right of centerline, 16:1 slope to clear
APCH RATIO 26:1 FM DSPLCD THLD.
5 ft. tree, 326 ft. from runway, 54 ft. left of centerline, 25:1 slope to clear
RWY 27 +15 FT TREE 171 FT FROM RWY END AND 125 FT R.

Airport Ownership and Management from official FAA records

Ownership: Publicly-owned
Owner: CITY OF CLAYTON
PO BOX 385
CLAYTON, AL 36016
Phone 334-775-9176
Manager: CITY OF CLAYTON
BOX 385
CLAYTON, AL 36016
Phone 334-775-9176

Airport Operational Statistics

Aircraft based on the field: 1
Jet airplanes: 1
    
Aircraft operations: avg 30/week *
79% transient general aviation
21% local general aviation
* for 12-month period ending 28 February 2017

Additional Remarks

DEER AND BIRD ACTVTY ON AND INVOF RWY.

Instrument Procedures

NOTE: All procedures below are presented as PDF files. If you need a reader for these files, you should download the free Adobe Reader.

NOT FOR NAVIGATION. Please procure official charts for flight.
FAA instrument procedures published for use from 11 October 2018 at 0901Z to 8 November 2018 at 0900Z.

 
IAPs - Instrument Approach Procedures
RNAV (GPS) RWY 09   download (211KB)
RNAV (GPS) RWY 27   download (189KB)
NOTE: Special Alternate Minimums apply   download
NOTE: Special Take-Off Minimums/Departure Procedures apply   download (248KB)

Other nearby airports with instrument procedures:

KEUF - Weedon Field Airport (19 nm E)
KTOI - Troy Municipal Airport at N Kenneth Campbell Field (27 nm W)
71J - Ozark-Blackwell Field Airport (28 nm S)
0J6 - Headland Municipal Airport (32 nm S)
KHEY - Hanchey Army Heliport (Fort Rucker) (33 nm S)
 
Loc | Ops | Rwys | IFR | FBO | Links
Com | Nav | Svcs | Stats | Notes


 
Area around 11A (Clayton Municipal Airport)
 
Road maps at: MapQuest Bing Google
 
Aerial photo
WARNING: Photo may not be current or correct
Aerial photo of 11A (Clayton Municipal Airport)
Photo courtesy of Eddie Yell / Boyd Bros Transportation
Photo taken 22-Mar-2009

Do you have a better or more recent aerial photo of Clayton Municipal Airport that you would like to share? If so, please send us your photo.

 
Sectional chart

 
Airport distance calculator
Flying to Clayton Municipal Airport? Find the distance to fly.

From to 11A

Sunrise and sunset
Times for 15-Oct-2018
 Local
(UTC-5)
 Zulu
(UTC)
Morning civil twilight06:2211:22
Sunrise06:4611:46
Sunset18:0923:09
Evening civil twilight18:3423:34

Current date and time
Zulu (UTC)  15-Oct-2018 19:43:06
Local (UTC-5)  15-Oct-2018 14:43:06
 
METAR
KEUF 
19nm E 
151858Z AUTO VRB06KT 10SM FEW030 FEW039 32/23 A3006 RMK AO2 SLP174 T03220228
KTOI 
27nm W 
151853Z AUTO 19006KT 10SM CLR 30/22 A3008 RMK AO2 SLP181 T03000217
KHEY 
33nm S 
151858Z AUTO 22007KT 10SM FEW095 31/23 A3005 RMK AO2 SLP175 T03090226
KDHN 
34nm S 
151853Z 36003KT 10SM FEW031 SCT038 BKN049 29/24 A3010 RMK AO2 RAB28E51 SLP187 P0003 T02890239
KLOR 
35nm SW 
151858Z AUTO 00000KT 10SM FEW037 BKN050 31/22 A3006 RMK AO2 SLP160 T03120224
KLSF 
36nm NE 
151856Z AUTO 24003KT 10SM SCT038 30/22 A3006 RMK AO2 SLP183 T03030224 $
KSXS 
36nm SW 
151858Z AUTO 22004KT 10SM SCT035 BKN044 BKN055 31/22 A3006 RMK AO2 SLP178 T03050216
TAF
KTOI 
27nm W 
151720Z 1518/1618 12005KT P6SM BKN035 TEMPO 1518/1520 BKN025 FM152000 24006KT P6SM VCSH BKN035 FM160600 00000KT 6SM BR BKN025 FM160800 VRB02KT 4SM BR BKN008 FM161300 35004KT P6SM VCSH OVC015
NOTAMs
Click for the latest NOTAMs
NOTAMs are issued by the DoD/FAA and will open in a separate window not controlled by AirNav.

 

 
 

Would you like to see your business listed on this page?

 If your business provides an interesting product or service to pilots, flight crews, aircraft, or users of the Clayton Municipal Airport, you should consider listing it here.  To start the listing process, click on the button below
 
Add a business
 

Other Pages about Clayton Municipal Airport

Update a link
 
Copyright © AirNav, LLC. All rights reserved. Privacy Policy  Contact